Regional Weather Roundup
Issued by NWS

Home | Current Version | Previous Version | Text Only | Print | Product List | Glossary Off
Versions: 1 2 3 4 5 6 7 8 9 10 11 12 13 14 15 16 17 18 19 20 21 22 23 24 25 26 27 28 29 30 31 32 33 34 35 36 37 38 39 40 41 42 43 44 45 46 47 48 49 50

000
ASUS43 KLMK 230502
RWRKY
KENTUCKY REGIONAL WEATHER ROUNDUP
NATIONAL WEATHER SERVICE LOUISVILLE KY
1200 AM EST MON JAN 23 2017

NOTE "FAIR" INDICATES FEW OR NO CLOUDS BELOW 12,000 FEET
WITH NO SIGNIFICANT WEATHER AND/OR OBSTRUCTIONS TO VISIBILITY.

KYZ001>023-026-027-061>063-070>075-230600-
WESTERN AND SOUTH CENTRAL KENTUCKY

CITY           SKY/WX    TMP DP  RH WIND       PRES   REMARKS
PADUCAH        CLOUDY    52  46  80 N15G23    29.51R
HENDERSON      CLOUDY    52  45  76 NW13G21   29.47S
OWENSBORO      MOCLDY    56  51  84 N15       29.42R
HOPKINSVILLE   CLOUDY    58  50  74 N15G26    29.37R
BOWLING GREEN  CLOUDY    57  52  83 N12G21    29.34R
GLASGOW        NOT AVBL
$$

KYZ024-025-028>034-038-045-046-053-230600-
NORTH CENTRAL KENTUCKY

CITY           SKY/WX    TMP DP  RH WIND       PRES   REMARKS
LOUISVILLE/SDF LGT RAIN  58  48  69 N15       29.38S
LOUISVILLE/LOU CLOUDY    58  48  69 N7        29.39S
FORT KNOX      CLOUDY    57  48  73 N15G23    29.36R
$$

KYZ035>037-039>044-047>052-055>060-089>105-230600-
NORTHEAST KENTUCKY

CITY           SKY/WX    TMP DP  RH WIND       PRES   REMARKS
LEXINGTON      CLOUDY    54  50  86 N15       29.34F
COVINGTON      CLOUDY    56  49  77 N17       29.41F
FRANKFORT      CLOUDY    56  48  74 N12       29.35F
$$

KYZ054-064>069-076>088-106>120-230600-
SOUTHEAST KENTUCKY

CITY           SKY/WX    TMP DP  RH WIND       PRES   REMARKS
JACKSON        LGT RAIN  53  51  93 NE8       29.32R FOG
LONDON         LGT RAIN  54  51  90 NE12      29.27F
SOMERSET       DRIZZLE   54  54 100 NE13      29.28F
MIDDLESBORO    NOT AVBL
MONTICELLO     CLOUDY    54  53  97 N17G25    29.28F
$$





USA.gov is the U.S. government's official web portal to all federal, state and local government web resources and services.